Location: Buckenweiler
(49.0667°N, 10.2500°E)
Time: 09:32:23
(UTC+00:00)

SJ-12 - Pass Details

Date: 18 January 2026
Orbit: 514 x 525 km, 97.8° (Epoch: 16 February)

Event Time Altitude Azimuth Distance (km) Brightness Sun altitude
Rises 05:52:29 0° 16° (NNE) 2,673 7.3 -11.7°
Reaches altitude 10° 05:54:37 10° 20° (NNE) 1,777 6.4 -11.4°
Maximum altitude 05:58:25 59° 101° (E) 608 4.4 -10.8°
Drops below altitude 10° 06:02:09 10° 182° (S) 1,754 6.6 -10.2°
Sets 06:04:16 0° 186° (S) 2,635 7.5 -9.9°
